Flag for Brazil Weather past 2 weeks in Manaus, Amazonas, Brazil

Now
73 °F

Clear.


Feels Like: 72 °F
Forecast: 66 / 93 °F
Wind: 2 mph from North

Location: Manaus Aeroporto

Current Time: Aug 21, 2014 at 5:13:06 AM

Latest Report: Aug 21, 2014 at 5:00 AM


Visibility: 10 mi

Pressure: 29.89 "Hg

Humidity: 89%

Dew point: 70 °F

Location of ManausLocation

Historic Weather in Manaus — Graph

°F

Manaus temperature yesterday

Maximum temperature yesterday: 93 °F (at 2:00 PM)
Minimum temperature yesterday: 75 °F (at 1:00 AM)
Average temperature yesterday: 83 °F

Past Weeks' High & Low Weather Summary

 TemperatureHumidityPressure
High93 °F (Aug 20, 2:00 PM)94% (Aug 6, 5:00 AM)30.04 "Hg (Aug 6, 5:00 AM)
Low72 °F (Aug 16, 10:00 AM)34% (Aug 20, 1:00 PM)29.80 "Hg (Aug 14, 4:00 PM)
Average81 °F77%29.91 "Hg
* Reported Aug 6 4:00 AM — Aug 21 4:00 AM, Manaus, Weather by CustomWeather, © 2014

Note: Actual official high and low records may vary slightly from our data, if they occured in-between our weather recording intervals... More about our weather records

Advertising

Manaus weather history for previous 24 hours

 ConditionsComfort  
Time TempWeatherWind HumidityBarometerVisibility
4:00 AM
Aug 21
73 °FClear.2 mph83%29.89 "Hg10 mi
3:00 AM73 °FClear.2 mph83%29.89 "Hg10 mi
2:00 AM75 °FClear.No wind83%29.89 "Hg10 mi
1:00 AM75 °FClear.No wind94%29.92 "Hg10 mi
12:00 AM77 °FClear.No wind83%29.92 "Hg10 mi
11:00 PM
Aug 20
77 °FClear.No wind74%29.92 "Hg10 mi
10:00 PM77 °FClear.No wind74%29.92 "Hg10 mi
9:00 PM79 °FClear.No wind70%29.92 "Hg10 mi
8:00 PM79 °FClear.1 mph74%29.89 "Hg10 mi
7:00 PM81 °FClear.No wind66%29.86 "Hg10 mi
6:00 PM84 °FPassing clouds.2 mph58%29.86 "HgN/A
5:00 PM90 °FScattered clouds.2 mph52%29.86 "HgN/A
4:00 PM91 °FPassing clouds.2 mph46%29.86 "HgN/A
3:00 PM91 °FPassing clouds.3 mph41%29.86 "HgN/A
2:00 PM93 °FPassing clouds.3 mph36%29.89 "HgN/A
1:00 PM91 °FPassing clouds.5 mph34%29.92 "Hg4 mi
12:00 PM90 °FHaze.5 mph49%29.92 "Hg2 mi
11:00 AM88 °FHaze.3 mph59%29.95 "Hg2 mi
10:00 AM88 °FHaze.3 mph59%29.98 "Hg2 mi
9:00 AM86 °FHaze.2 mph62%29.95 "Hg2 mi
8:00 AM82 °FClear.No wind74%29.95 "Hg4 mi
7:00 AM79 °FClear.2 mph89%29.92 "Hg4 mi
6:00 AM75 °FClear.2 mph94%29.92 "Hg4 mi
5:00 AM77 °FClear.2 mph94%29.89 "Hg10 mi
Weather by CustomWeather, © 2014

See weather overviewHow to use our weather pages